Weather History for Crossville, TN

Change the Weather History Date:

Tuesday, December 27, 2011

  Actual Average Record
Temperature  
Mean Temperature 40 °F 36 °F  
Max Temperature 45 °F 45 °F 67 °F (1982)
Min Temperature 34 °F 28 °F 10 °F (1977)
Degree Days  
Heating Degree Days 25    
Month to date heating degree days 576  
Since 1 July heating degree days 1409  
Cooling Degree Days 0    
Month to date cooling degree days 0  
Year to date cooling degree days 1189  
Moisture  
Dew Point 36 °F    
Average Humidity 86    
Maximum Humidity 96    
Minimum Humidity 75    
Precipitation  
Precipitation 0.85 in 0.14 in 1.46 in (1974)
Month to date precipitation 5.95 4.37  
Year to date precipitation 64.88 54.51  
Sea Level Pressure  
Sea Level Pressure 29.77 in    
Wind  
Wind Speed 12 mph (SW)    
Max Wind Speed 23 mph    
Max Gust Speed 35 mph    
Visibility 7 miles    
Events Rain , Snow    
T = Trace of Precipitation, MM = Missing Value Source: NWS Daily Summary

Daily Weather History Graph

Daily Weather History Graph

Search for Another Location

Airport:

Trip Planner

Search our weather history database for the weather conditions in past years. The results will help you decide how hot, cold, wet, or windy it might be!

Date:

Astronomy

Dec. 27, 2011 Rise Set
Actual Time 6:49 AM CST 4:33 PM CST
Civil Twilight 6:20 AM CST 5:01 PM CST
Nautical Twilight 5:48 AM CST 5:33 PM CST
Astronomical Twilight 5:17 AM CST 6:05 PM CST
Moon 8:49 AM CST (12/27) 7:59 PM CST (12/27)
Length of Visible Light 10h 40m
Length of Day
9h 43m
Waxing Crescent, 11% of the Moon is Illuminated
Dec 27
Waxing Crescent
Jan 1
First Quarter
Jan 9
Full
Jan 16
Last Quarter
Jan 23
New

Hourly Weather History & Observations

Time (CST) Temp. Windchill Dew Point Humidity Pressure Visibility Wind Dir Wind Speed Gust Speed Precip Events Conditions
12:53 AM 39.9 °F 33.4 °F 35.1 °F 83% 29.86 in 6.0 mi SSE 10.4 mph 18.4 mph 0.10 in Rain Light Rain
1:53 AM 39.2 °F 32.5 °F 37.4 °F 93% 29.80 in 4.0 mi SSE 10.4 mph 24.2 mph N/A Rain Rain
2:17 AM 41.0 °F 34.7 °F 37.4 °F 87% 29.80 in 4.0 mi South 10.4 mph 28.8 mph 0.06 in Rain Rain
2:40 AM 41.0 °F 35.2 °F 37.4 °F 87% 29.77 in 7.0 mi SSE 9.2 mph 25.3 mph 0.10 in Rain Light Rain
2:49 AM 41.0 °F 34.3 °F 37.4 °F 87% 29.76 in 9.0 mi SSE 11.5 mph 21.9 mph 0.11 in Rain Light Rain
2:53 AM 41.0 °F 35.2 °F 37.9 °F 89% 29.77 in 7.0 mi South 9.2 mph 19.6 mph 0.11 in Rain Light Rain
3:00 AM 41.0 °F 34.3 °F 37.4 °F 87% 29.77 in 5.0 mi South 11.5 mph 19.6 mph 0.02 in Rain Rain
3:21 AM 41.0 °F 38.0 °F 39.2 °F 93% 29.79 in 2.5 mi Variable 4.6 mph 17.3 mph 0.10 in Rain Heavy Rain
3:31 AM 41.0 °F 38.0 °F 39.2 °F 93% 29.78 in 4.0 mi Variable 4.6 mph - 0.13 in Rain Rain
3:38 AM 41.0 °F 37.1 °F 39.2 °F 93% 29.77 in 3.0 mi Variable 5.8 mph - 0.16 in Rain Heavy Rain
3:53 AM 41.0 °F 38.0 °F 39.0 °F 93% 29.78 in 6.0 mi SSE 4.6 mph - 0.19 in Rain Light Rain
4:19 AM 41.0 °F 37.1 °F 39.2 °F 93% 29.74 in 5.0 mi SSE 5.8 mph - 0.03 in Rain Light Rain
4:26 AM 41.0 °F 37.1 °F 39.2 °F 93% 29.73 in 4.0 mi SSE 5.8 mph - 0.05 in Rain Rain
4:53 AM 41.0 °F 36.4 °F 39.0 °F 93% 29.73 in 5.0 mi South 6.9 mph - 0.09 in Rain Light Rain
5:53 AM 44.1 °F 38.6 °F 41.0 °F 89% 29.68 in 10.0 mi South 10.4 mph 19.6 mph 0.12 in Rain Light Rain
6:09 AM 44.6 °F 38.4 °F 42.8 °F 93% 29.66 in 10.0 mi South 12.7 mph 21.9 mph 0.00 in Rain Light Rain
6:44 AM 44.6 °F 38.4 °F 42.8 °F 93% 29.65 in 8.0 mi South 12.7 mph 23.0 mph 0.00 in Rain Light Rain
6:53 AM 45.0 °F 38.5 °F 42.1 °F 90% 29.65 in 8.0 mi South 13.8 mph 23.0 mph 0.00 in Rain Light Rain
7:33 AM 44.6 °F 37.4 °F 42.8 °F 93% 29.65 in 2.5 mi SSW 16.1 mph 24.2 mph 0.01 in Rain Rain
7:35 AM 44.6 °F 39.2 °F 41.0 °F 87% 29.65 in 3.0 mi South 10.4 mph 24.2 mph 0.01 in Rain Light Rain
7:44 AM 44.6 °F 38.1 °F 41.0 °F 87% 29.65 in 4.0 mi SSW 13.8 mph 24.2 mph 0.03 in Rain Light Rain
7:53 AM 44.1 °F 39.0 °F 41.0 °F 89% 29.66 in 4.0 mi SSW 9.2 mph 21.9 mph 0.04 in Rain Light Rain
8:05 AM 44.6 °F 38.4 °F 41.0 °F 87% 29.66 in 5.0 mi SW 12.7 mph 21.9 mph 0.01 in Rain Light Rain
8:15 AM 44.6 °F 40.2 °F 41.0 °F 87% 29.66 in 5.0 mi WSW 8.1 mph 18.4 mph 0.03 in Rain Light Rain
8:53 AM 44.1 °F 38.1 °F 39.0 °F 82% 29.66 in 6.0 mi WSW 11.5 mph 27.6 mph 0.03 in Rain Light Rain
8:57 AM 42.8 °F 37.0 °F 39.2 °F 87% 29.67 in 3.0 mi WSW 10.4 mph 27.6 mph 0.00 in Rain Light Rain
9:02 AM 42.8 °F 34.5 °F 39.2 °F 87% 29.66 in 2.5 mi WSW 18.4 mph 34.5 mph 0.01 in Rain Rain
9:11 AM 42.8 °F 34.5 °F 39.2 °F 87% 29.67 in 4.0 mi WSW 18.4 mph 31.1 mph 0.02 in Rain Light Rain
9:21 AM 42.8 °F 35.1 °F 39.2 °F 87% 29.68 in 9.0 mi WSW 16.1 mph 27.6 mph N/A Rain Light Rain
9:53 AM 42.1 °F 35.2 °F 37.9 °F 85% 29.67 in 10.0 mi West 12.7 mph 21.9 mph 0.03 in   Overcast
10:20 AM 42.8 °F 36.6 °F 37.4 °F 81% 29.67 in 10.0 mi WSW 11.5 mph 21.9 mph 0.00 in   Overcast
10:53 AM 39.9 °F 31.4 °F 37.0 °F 89% 29.69 in 4.0 mi West 16.1 mph 26.5 mph 0.04 in Rain Light Rain
11:09 AM 39.2 °F 31.2 °F 35.6 °F 87% 29.68 in 7.0 mi West 13.8 mph 29.9 mph 0.01 in Rain Light Rain
11:53 AM 37.9 °F 28.9 °F 34.0 °F 86% 29.70 in 10.0 mi West 16.1 mph 28.8 mph 0.01 in   Overcast
12:53 PM 37.0 °F 27.0 °F 33.1 °F 86% 29.72 in 9.0 mi West 18.4 mph 28.8 mph 0.01 in Rain Light Rain
1:04 PM 37.4 °F 26.4 °F 33.8 °F 87% 29.71 in 10.0 mi West 23.0 mph 29.9 mph 0.00 in   Overcast
1:37 PM 37.4 °F 28.5 °F 32.0 °F 81% 29.72 in 10.0 mi West 15.0 mph 24.2 mph 0.00 in   Overcast
1:53 PM 36.0 °F 28.0 °F 33.1 °F 89% 29.74 in 7.0 mi West 11.5 mph 20.7 mph 0.00 in Rain Light Rain
2:53 PM 36.0 °F 26.0 °F 33.1 °F 89% 29.78 in 10.0 mi West 17.3 mph 27.6 mph 0.00 in   Overcast
3:44 PM 35.6 °F 26.6 °F 33.8 °F 93% 29.79 in 10.0 mi West 13.8 mph 23.0 mph N/A   Overcast
4:10 PM 37.4 °F 29.8 °F 32.0 °F 81% 29.80 in 10.0 mi West 11.5 mph 20.7 mph N/A   Overcast
4:51 PM 35.6 °F 25.5 °F 33.8 °F 93% 29.83 in 10.0 mi West 17.3 mph 24.2 mph N/A   Overcast
4:53 PM 36.0 °F 25.6 °F 33.1 °F 89% 29.86 in 10.0 mi West 18.4 mph 25.3 mph N/A   Overcast
5:53 PM 34.0 °F 24.6 °F 32.0 °F 92% 29.91 in 4.0 mi WNW 13.8 mph 20.7 mph 0.02 in Snow Light Snow
6:53 PM 35.1 °F 28.6 °F 33.1 °F 92% 29.92 in 10.0 mi West 8.1 mph - 0.01 in   Overcast
7:40 PM 35.6 °F 30.7 °F 33.8 °F 93% 29.91 in 10.0 mi West 5.8 mph - N/A   Overcast
7:49 PM 35.6 °F 30.7 °F 33.8 °F 93% 29.91 in 10.0 mi West 5.8 mph - N/A   Overcast
7:53 PM 35.1 °F 29.3 °F 33.1 °F 92% 29.92 in 9.0 mi West 6.9 mph - N/A   Overcast
8:53 PM 34.0 °F 24.2 °F 32.0 °F 92% 29.96 in 9.0 mi WNW 15.0 mph 24.2 mph 0.01 in   Overcast
9:07 PM 35.6 °F 28.6 °F 30.2 °F 81% 29.94 in 10.0 mi WNW 9.2 mph - N/A   Overcast
9:53 PM 35.1 °F 27.9 °F 30.0 °F 82% 29.97 in 10.0 mi WNW 9.2 mph - N/A   Overcast
10:53 PM 35.1 °F 26.9 °F 28.9 °F 78% 29.99 in 10.0 mi WNW 11.5 mph 20.7 mph N/A   Overcast
11:16 PM 33.8 °F 24.3 °F 28.4 °F 81% 29.98 in 10.0 mi WNW 13.8 mph - N/A   Overcast
11:42 PM 33.8 °F 25.8 °F 28.4 °F 81% 29.98 in 10.0 mi WNW 10.4 mph - N/A   Overcast
11:53 PM 34.0 °F 26.0 °F 28.0 °F 79% 30.01 in 10.0 mi WNW 10.4 mph 18.4 mph N/A   Overcast